Time,TemperatureF,DewpointF,PressureIn,WindDirection,WindDirectionDegrees,WindSpeedMPH,WindSpeedGustMPH,Humidity,HourlyPrecipIn,Conditions,Clouds,dailyrainin,SoftwareType,DateUTC
2013-09-10 00:00:00,66.6,60.9,29.68,SE,135,0.0,0.0,82,0.00,,,0.00,WUHU216HW,2013-09-10 04:00:00,
2013-09-10 00:01:00,66.6,60.9,29.68,SE,135,0.0,0.0,82,0.00,,,0.00,WUHU216HW,2013-09-10 04:01:00,
2013-09-10 00:02:00,66.6,60.9,29.68,SE,135,0.0,0.0,82,0.00,,,0.00,WUHU216HW,2013-09-10 04:02:00,
2013-09-10 00:07:00,66.6,60.9,29.68,SE,135,0.0,0.0,82,0.00,,,0.00,WUHU216HW,2013-09-10 04:07:00,
2013-09-10 00:30:00,65.9,60.2,29.68,SE,135,0.0,0.0,82,0.00,,,0.00,WUHU216HW,2013-09-10 04:30:00,
2013-09-10 00:35:00,65.9,60.2,29.68,SE,135,0.0,0.0,82,0.00,,,0.00,WUHU216HW,2013-09-10 04:35:00,
2013-09-10 01:00:00,65.3,60.4,29.67,South,180,0.4,0.4,84,0.00,,,0.00,WUHU216HW,2013-09-10 05:00:00,
2013-09-10 01:05:00,65.3,60.4,29.67,South,180,0.4,0.4,84,0.00,,,0.00,WUHU216HW,2013-09-10 05:05:00,
2013-09-10 01:30:00,65.3,60.8,29.67,South,180,0.4,0.4,85,0.00,,,0.00,WUHU216HW,2013-09-10 05:30:00,
2013-09-10 01:35:00,65.3,60.8,29.67,South,180,0.4,0.4,85,0.00,,,0.00,WUHU216HW,2013-09-10 05:35:00,
2013-09-10 02:00:00,66.4,61.7,29.67,SSE,158,0.4,0.4,85,0.00,,,0.00,WUHU216HW,2013-09-10 06:00:00,
2013-09-10 02:05:00,66.4,61.7,29.67,SSE,158,0.4,0.4,85,0.00,,,0.00,WUHU216HW,2013-09-10 06:05:00,
2013-09-10 02:30:00,66.8,62.5,29.67,SE,135,2.0,2.0,86,0.00,,,0.00,WUHU216HW,2013-09-10 06:30:00,
2013-09-10 02:35:00,66.8,62.5,29.67,SE,135,2.0,2.0,86,0.00,,,0.00,WUHU216HW,2013-09-10 06:35:00,
2013-09-10 03:00:00,66.6,61.6,29.68,SE,135,0.9,0.9,84,0.00,,,0.00,WUHU216HW,2013-09-10 07:00:00,
2013-09-10 03:05:00,66.6,61.6,29.68,SE,135,0.9,0.9,84,0.00,,,0.00,WUHU216HW,2013-09-10 07:05:00,
2013-09-10 03:30:00,66.4,62.1,29.67,SSE,158,1.1,1.1,86,0.00,,,0.00,WUHU216HW,2013-09-10 07:30:00,
2013-09-10 03:35:00,66.4,62.1,29.67,SSE,158,1.1,1.1,86,0.00,,,0.00,WUHU216HW,2013-09-10 07:35:00,
2013-09-10 04:00:00,66.4,61.7,29.67,SE,135,0.0,0.0,85,0.00,,,0.00,WUHU216HW,2013-09-10 08:00:00,
2013-09-10 04:05:00,66.4,61.7,29.67,SE,135,0.0,0.0,85,0.00,,,0.00,WUHU216HW,2013-09-10 08:05:00,
2013-09-10 04:30:00,66.2,61.9,29.66,SE,135,1.8,1.8,86,0.00,,,0.00,WUHU216HW,2013-09-10 08:30:00,
2013-09-10 04:35:00,66.2,61.9,29.66,SE,135,1.8,1.8,86,0.00,,,0.00,WUHU216HW,2013-09-10 08:35:00,
2013-09-10 05:00:00,66.6,62.3,29.67,SE,135,0.9,0.9,86,0.00,,,0.00,WUHU216HW,2013-09-10 09:00:00,
2013-09-10 05:05:00,66.6,62.3,29.67,SE,135,0.9,0.9,86,0.00,,,0.00,WUHU216HW,2013-09-10 09:05:00,
2013-09-10 05:30:00,66.4,62.1,29.67,SSE,158,1.1,1.1,86,0.00,,,0.00,WUHU216HW,2013-09-10 09:30:00,
2013-09-10 05:35:00,66.4,62.1,29.67,SSE,158,1.1,1.1,86,0.00,,,0.00,WUHU216HW,2013-09-10 09:35:00,
2013-09-10 06:00:00,66.6,62.3,29.68,SSE,158,0.9,0.9,86,0.00,,,0.00,WUHU216HW,2013-09-10 10:00:00,
2013-09-10 06:05:00,66.6,62.3,29.68,SSE,158,0.9,0.9,86,0.00,,,0.00,WUHU216HW,2013-09-10 10:05:00,
2013-09-10 06:30:00,66.4,62.1,29.69,SE,135,0.0,0.0,86,0.00,,,0.00,WUHU216HW,2013-09-10 10:30:00,
2013-09-10 06:35:00,66.4,62.1,29.69,SE,135,0.0,0.0,86,0.00,,,0.00,WUHU216HW,2013-09-10 10:35:00,
2013-09-10 07:00:00,65.9,61.6,29.71,ESE,113,0.0,0.0,86,0.00,,,0.00,WUHU216HW,2013-09-10 11:00:00,
2013-09-10 07:05:00,65.9,61.6,29.71,ESE,113,0.0,0.0,86,0.00,,,0.00,WUHU216HW,2013-09-10 11:05:00,
2013-09-10 07:30:00,65.9,61.8,29.71,SSE,158,0.7,0.7,87,0.00,,,0.00,WUHU216HW,2013-09-10 11:30:00,
2013-09-10 07:35:00,65.9,61.8,29.71,SSE,158,0.7,0.7,87,0.00,,,0.00,WUHU216HW,2013-09-10 11:35:00,
2013-09-10 08:00:00,67.1,63.1,29.71,SSE,158,0.0,0.0,87,0.00,,,0.00,WUHU216HW,2013-09-10 12:00:00,
2013-09-10 08:05:00,67.1,63.1,29.71,SSE,158,0.0,0.0,87,0.00,,,0.00,WUHU216HW,2013-09-10 12:05:00,
2013-09-10 08:30:00,69.5,65.1,29.71,SSW,203,0.4,0.4,86,0.00,,,0.00,WUHU216HW,2013-09-10 12:30:00,
2013-09-10 08:35:00,69.5,65.1,29.71,SSW,203,0.4,0.4,86,0.00,,,0.00,WUHU216HW,2013-09-10 12:35:00,
2013-09-10 09:00:00,73.6,67.5,29.71,South,180,1.8,1.8,81,0.00,,,0.00,WUHU216HW,2013-09-10 13:00:00,
2013-09-10 09:05:00,73.6,67.5,29.71,South,180,1.8,1.8,81,0.00,,,0.00,WUHU216HW,2013-09-10 13:05:00,
2013-09-10 09:30:00,75.8,68.5,29.72,WNW,293,4.0,4.0,78,0.00,,,0.00,WUHU216HW,2013-09-10 13:30:00,
2013-09-10 09:35:00,75.8,68.5,29.72,WNW,293,4.0,4.0,78,0.00,,,0.00,WUHU216HW,2013-09-10 13:35:00,
2013-09-10 10:00:00,78.1,68.8,29.72,SSW,203,3.4,3.4,73,0.00,,,0.00,WUHU216HW,2013-09-10 14:00:00,
2013-09-10 10:05:00,78.1,68.8,29.72,SSW,203,3.4,3.4,73,0.00,,,0.00,WUHU216HW,2013-09-10 14:05:00,
2013-09-10 10:30:00,80.1,69.0,29.73,SSW,203,4.3,4.3,69,0.00,,,0.00,WUHU216HW,2013-09-10 14:30:00,
2013-09-10 10:35:00,80.1,69.0,29.73,SSW,203,4.3,4.3,69,0.00,,,0.00,WUHU216HW,2013-09-10 14:35:00,
2013-09-10 11:00:00,82.1,69.5,29.72,NW,315,4.0,4.0,66,0.00,,,0.00,WUHU216HW,2013-09-10 15:00:00,
2013-09-10 11:05:00,82.1,69.5,29.72,NW,315,4.0,4.0,66,0.00,,,0.00,WUHU216HW,2013-09-10 15:05:00,
2013-09-10 11:30:00,84.2,70.3,29.71,WSW,248,1.8,1.8,63,0.00,,,0.00,WUHU216HW,2013-09-10 15:30:00,
2013-09-10 11:35:00,84.2,70.3,29.71,WSW,248,1.8,1.8,63,0.00,,,0.00,WUHU216HW,2013-09-10 15:35:00,
2013-09-10 12:00:00,86.0,72.0,29.70,WNW,293,3.6,3.6,63,0.00,,,0.00,WUHU216HW,2013-09-10 16:00:00,
2013-09-10 12:05:00,86.0,72.0,29.70,WNW,293,3.6,3.6,63,0.00,,,0.00,WUHU216HW,2013-09-10 16:05:00,
2013-09-10 12:30:00,87.5,72.0,29.70,WNW,293,1.1,1.1,60,0.00,,,0.00,WUHU216HW,2013-09-10 16:30:00,
2013-09-10 12:35:00,87.5,72.0,29.70,WNW,293,1.1,1.1,60,0.00,,,0.00,WUHU216HW,2013-09-10 16:35:00,
2013-09-10 13:00:00,88.9,72.8,29.69,WNW,293,2.9,2.9,59,0.00,,,0.00,WUHU216HW,2013-09-10 17:00:00,
2013-09-10 13:05:00,88.9,72.8,29.69,WNW,293,2.9,2.9,59,0.00,,,0.00,WUHU216HW,2013-09-10 17:05:00,
2013-09-10 13:30:00,91.1,73.6,29.69,NNW,338,0.7,0.7,57,0.00,,,0.00,WUHU216HW,2013-09-10 17:30:00,
2013-09-10 13:35:00,91.1,73.6,29.69,NNW,338,0.7,0.7,57,0.00,,,0.00,WUHU216HW,2013-09-10 17:35:00,
2013-09-10 14:00:00,91.4,72.9,29.68,West,270,1.6,1.6,55,0.00,,,0.00,WUHU216HW,2013-09-10 18:00:00,
2013-09-10 14:05:00,91.4,72.9,29.68,West,270,1.6,1.6,55,0.00,,,0.00,WUHU216HW,2013-09-10 18:05:00,
2013-09-10 14:30:00,91.4,72.9,29.67,SE,135,2.9,2.9,55,0.00,,,0.00,WUHU216HW,2013-09-10 18:30:00,
2013-09-10 14:35:00,91.4,72.9,29.67,SE,135,2.9,2.9,55,0.00,,,0.00,WUHU216HW,2013-09-10 18:35:00,
2013-09-10 15:00:00,92.5,73.4,29.66,WSW,248,3.4,3.4,54,0.00,,,0.00,WUHU216HW,2013-09-10 19:00:00,
2013-09-10 15:05:00,92.5,73.4,29.66,WSW,248,3.4,3.4,54,0.00,,,0.00,WUHU216HW,2013-09-10 19:05:00,
2013-09-10 15:30:00,92.9,72.6,29.65,SW,225,3.6,3.6,52,0.00,,,0.00,WUHU216HW,2013-09-10 19:30:00,
2013-09-10 15:35:00,92.9,72.6,29.65,SW,225,3.6,3.6,52,0.00,,,0.00,WUHU216HW,2013-09-10 19:35:00,
2013-09-10 16:00:00,93.6,72.2,29.64,SSE,158,4.0,4.0,50,0.00,,,0.00,WUHU216HW,2013-09-10 20:00:00,
2013-09-10 16:05:00,93.6,72.2,29.64,SSE,158,4.0,4.0,50,0.00,,,0.00,WUHU216HW,2013-09-10 20:05:00,
2013-09-10 16:30:00,94.7,72.6,29.64,SSW,203,2.2,2.2,49,0.00,,,0.00,WUHU216HW,2013-09-10 20:30:00,
2013-09-10 16:35:00,94.7,72.6,29.64,SSW,203,2.2,2.2,49,0.00,,,0.00,WUHU216HW,2013-09-10 20:35:00,
2013-09-10 17:00:00,92.2,71.9,29.64,SSE,158,4.0,4.0,52,0.00,,,0.00,WUHU216HW,2013-09-10 21:00:00,
2013-09-10 17:05:00,92.2,71.9,29.64,SSE,158,4.0,4.0,52,0.00,,,0.00,WUHU216HW,2013-09-10 21:05:00,
2013-09-10 17:30:00,92.0,71.2,29.63,SE,135,5.4,5.4,51,0.00,,,0.00,WUHU216HW,2013-09-10 21:30:00,
2013-09-10 17:35:00,92.0,71.2,29.63,SE,135,5.4,5.4,51,0.00,,,0.00,WUHU216HW,2013-09-10 21:35:00,
2013-09-10 18:00:00,90.9,72.5,29.63,SW,225,3.8,3.8,55,0.00,,,0.00,WUHU216HW,2013-09-10 22:00:00,
2013-09-10 18:05:00,90.9,72.5,29.63,SW,225,3.8,3.8,55,0.00,,,0.00,WUHU216HW,2013-09-10 22:05:00,
2013-09-10 18:30:00,90.0,72.7,29.64,SSE,158,3.6,3.6,57,0.00,,,0.00,WUHU216HW,2013-09-10 22:30:00,
2013-09-10 18:35:00,90.0,72.7,29.64,SSE,158,3.6,3.6,57,0.00,,,0.00,WUHU216HW,2013-09-10 22:35:00,
2013-09-10 19:00:00,87.8,73.3,29.64,SSE,158,2.0,2.0,62,0.00,,,0.00,WUHU216HW,2013-09-10 23:00:00,
2013-09-10 19:05:00,87.8,73.3,29.64,SSE,158,2.0,2.0,62,0.00,,,0.00,WUHU216HW,2013-09-10 23:05:00,
2013-09-10 19:30:00,85.7,72.5,29.65,SSW,203,2.5,2.5,65,0.00,,,0.00,WUHU216HW,2013-09-10 23:30:00,
2013-09-10 19:35:00,85.7,72.5,29.65,SSW,203,2.5,2.5,65,0.00,,,0.00,WUHU216HW,2013-09-10 23:35:00,
2013-09-10 20:00:00,83.9,72.2,29.65,SSE,158,0.4,0.4,68,0.00,,,0.00,WUHU216HW,2013-09-11 00:00:00,
2013-09-10 20:05:00,83.9,72.2,29.65,SSE,158,0.4,0.4,68,0.00,,,0.00,WUHU216HW,2013-09-11 00:05:00,
2013-09-10 20:30:00,82.4,71.6,29.66,South,180,1.1,1.1,70,0.00,,,0.00,WUHU216HW,2013-09-11 00:30:00,
2013-09-10 20:35:00,82.4,71.6,29.66,South,180,1.1,1.1,70,0.00,,,0.00,WUHU216HW,2013-09-11 00:35:00,
2013-09-10 21:00:00,81.4,71.1,29.67,South,180,0.9,0.9,71,0.00,,,0.00,WUHU216HW,2013-09-11 01:00:00,
2013-09-10 21:05:00,81.4,71.1,29.67,South,180,0.9,0.9,71,0.00,,,0.00,WUHU216HW,2013-09-11 01:05:00,
2013-09-10 21:30:00,80.5,70.7,29.68,SE,135,1.3,1.3,72,0.00,,,0.00,WUHU216HW,2013-09-11 01:30:00,
2013-09-10 21:35:00,80.5,70.7,29.68,SE,135,1.3,1.3,72,0.00,,,0.00,WUHU216HW,2013-09-11 01:35:00,
2013-09-10 22:00:00,79.6,70.6,29.68,SE,135,0.0,0.0,74,0.00,,,0.00,WUHU216HW,2013-09-11 02:00:00,
2013-09-10 22:05:00,79.6,70.6,29.68,SE,135,0.0,0.0,74,0.00,,,0.00,WUHU216HW,2013-09-11 02:05:00,